Regional Weather Roundup
Issued by NWS

Home | Current Version | Previous Version | Text Only | Print | Product List | Glossary Off
Versions: 1 2 3 4 5 6 7 8 9 10 11 12 13 14 15 16 17 18 19 20 21 22 23 24 25 26 27 28 29 30 31 32 33 34 35 36 37 38 39 40 41 42 43 44 45 46 47 48 49 50

671
ASUS43 KMPX 280210
RWRMN
WEATHER ROUNDUP FOR MINNESOTA
NATIONAL WEATHER SERVICE TWIN CITIES/CHANHASSEN MN
900 PM CDT FRI MAY 27 2016


NOTE: "FAIR" INDICATES FEW OR NO CLOUDS BELOW 12,000 FEET WITH NO
SIGNIFICANT WEATHER AND/OR OBSTRUCTIONS TO VISIBILITY. N/A MEANS
CURRENT SKY AND/OR WEATHER CONDITIONS ARE NOT AVAILABLE.

MNZ060>063-068>070-280300-
   Twin Cities Metro

CITY           SKY/WX    TMP DP  RH WIND       PRES   REMARKS
TWIN CITIES    MOCLDY    64  60  87 NW6       29.74S
ST PAUL        CLOUDY    64  62  93 NW6       29.74S
CRYSTAL        CLOUDY    64  59  83 NW5       29.73S
BLAINE         CLOUDY    64  64 100 CALM      29.74F
EDEN PRAIRIE   CLEAR     63  59  87 N5        29.74R
SOUTH ST PAUL  CLEAR     65  62  91 CALM      29.74R
LAKE ELMO      CLOUDY    64  63  94 CALM      29.75S
$$
MNZ001>005-007-008-013>017-022>024-027-028-280300-
   Northwest Minnesota

CITY           SKY/WX    TMP DP  RH WIND       PRES   REMARKS
BEMIDJI        CLOUDY    61  56  84 E7        29.82S
HALLOCK        PTCLDY    66  55  68 SE7       29.79R
ROSEAU         MOCLDY    63  57  82 SE6       29.83R
WARROAD        MOCLDY    61  55  82 E5        29.84R
THIEF RVR FALL CLOUDY    64  55  72 SE8       29.82R
CROOKSTON      CLOUDY    63  61  94 SE10      29.79R
FOSSTON        CLOUDY    63  55  77 SE6       29.83R
DETROIT LAKES  MOCLDY    63  54  72 SE12      29.81S
MOORHEAD       CLOUDY    63  61  94 N6        29.78S
PARK RAPIDS    CLOUDY    63  55  75 E7        29.80F
MAHNOMEN       CLOUDY    63  54  73 SE7       29.81R
$$
MNZ006-009>011-018-025>026-280300-
   North Central Minnesota

CITY           SKY/WX    TMP DP  RH WIND       PRES   REMARKS
BAUDETTE       PTCLDY    63  53  70 SE5       29.85R
FLAG ISLAND    LGT RAIN  63  59  88 CALM      29.83S
INTL FALLS     CLOUDY    63  53  70 NE3       29.85R
WASKISH        PTCLDY    63  55  77 E3        29.84S
BIG FORK       CLOUDY    59  57  94 CALM      29.85R
LONGVILLE      PTCLDY    59  57  94 CALM      29.82S
GRAND RAPIDS   CLOUDY    58  54  86 CALM      29.83R
CRANE LAKE     CLOUDY    61  55  82 CALM      29.86S
ORR            CLOUDY    57  54  88 CALM      29.82R
COOK           MOCLDY    59  55  88 CALM      29.83R
WALKER         MOCLDY    60  56  85 CALM      29.81F
$$
MNZ012-019>021-037-280300-
   Northeast Minnesota

CITY           SKY/WX    TMP DP  RH WIND       PRES   REMARKS
DULUTH         CLOUDY    52  50  93 E9        29.81F
ELY            LGT RAIN  57  54  88 E5        29.83F
HIBBING        RAIN      59  55  87 NE7       29.82R FOG
EVELETH        CLOUDY    59  54  82 E5        29.83S
DULUTH HARBOR  LGT RAIN  46  45  93 NE10      29.83S
TWO HARBORS    LGT RAIN  54  48  82 E6        29.81F
SILVER BAY     LGT RAIN  52  52 100 N6        29.83S
GRAND MARAIS     N/A     41  40  96 CALM      29.86F
G MARAIS ARPRT RAIN      55  48  76 NE6       29.88S
$$
MNZ029>031-032-039>041-046>048-054>057-064-280300-
   West Central Minnesota

CITY           SKY/WX    TMP DP  RH WIND       PRES   REMARKS
FERGUS FALLS   CLOUDY    64  57  77 E9        29.74S
WHEATON        MOCLDY    64  59  82 NW7       29.77F
MORRIS         CLOUDY    64  61  88 E9        29.75S
ALEXANDRIA     CLOUDY    60  57  89 NE9       29.78F
ELBOW LAKE     FAIR      61  58  89 SE9       29.77S
WADENA         MOCLDY    59  55  88 E5        29.79F
GLENWOOD       CLOUDY    61  57  88 NE10      29.77F
APPLETON       PTCLDY    68  61  77 E9        29.74R
ORTONVILLE     CLOUDY    68  59  73 N12       29.75R
MADISON        PTCLDY    66  59  77 N9        29.73R
WILLMAR        FAIR      63  59  88 E8        29.76R
$$
MNZ033>034-036-042>043-049>051-058-059-280300-
   Central Minnesota

CITY           SKY/WX    TMP DP  RH WIND       PRES   REMARKS
ST CLOUD       CLOUDY    59  58  96 NE8       29.74F
SAUK CENTRE    CLOUDY    60  57  89 NE10      29.77S
PAYNESVILLE    CLOUDY    61  59  93 NE9       29.75F
AITKIN         CLOUDY    61  55  82 CALM      29.78S
PINE RIVER     CLOUDY    61  55  82 CALM      29.84F
BRAINERD       CLOUDY    60  57  89 NE8       29.80S
STAPLES        CLOUDY    59  55  88 E5        29.79F
LONG PRAIRIE   CLOUDY    59  55  88 N8        29.78F
LITTLE FALLS   CLOUDY    59  55  88 NE5       29.77S
LITCHFIELD     CLOUDY    63  61  94 E9        29.76R
BUFFALO        CLOUDY    61  58  90 N6        29.76S
MAPLE LAKE     CLOUDY    61  60  96 NE8       29.75F
HUTCHINSON     CLOUDY    63  61  94 NE5       29.76R
$$
MNZ037-044-045-052-053-280300-
   East Central Minnesota

CITY           SKY/WX    TMP DP  RH WIND       PRES   REMARKS
PRINCETON      CLOUDY    59  57  94 NE7       29.75F
MORA           CLOUDY    55  54  94 NE5       29.79S
CAMBRIDGE      CLOUDY    61  52  72 N3        29.74F
RUSH CITY      CLOUDY    58  56  93 NE6       29.76S
MOOSE LAKE     CLOUDY    52  50  93 NE6       29.79S
HINCKLEY       CLOUDY    55  54  94 NE6       29.78S
CLOQUET        CLOUDY    52  50  93 E12       29.81S
MCGREGOR       CLOUDY    59  55  88 E9        29.80S
$$
MNZ071>073-080-081-089-090-097-098-280300-
   Southwest Minnesota

CITY           SKY/WX    TMP DP  RH WIND       PRES   REMARKS
MONTEVIDEO     PTCLDY    66  61  82 SE10      29.76R
GRANITE FALLS  MOCLDY    69  62  79 E8        29.75R
CANBY          CLOUDY    68  61  77 W6        29.75R
MARSHALL       CLOUDY    69  58  67 E9        29.74
REDWOOD FALLS  PTCLDY    65  59  81 E6        29.73R
OLIVIA         PTCLDY    63  59  88 E6        29.74R
PIPESTONE      CLOUDY    72  55  56 CALM      29.74S
WINDOM         PTCLDY    66  57  72 CALM      29.73F
WORTHINGTON    CLOUDY    69  59  70 E5        29.74R
JACKSON        CLEAR     68  59  73 NE7       29.74S
TRACY          PTCLDY    68  59  73 E8        29.75R
SLAYTON        CLOUDY    69  56  63 NE7       29.75S
$$
MNZ065>067-074>077-082>085-091>093-280300-
   South Central Minnesota

CITY           SKY/WX    TMP DP  RH WIND       PRES   REMARKS
MANKATO        CLOUDY    66  61  82 E6        29.74S
NEW ULM        CLEAR     64  63  94 E9        29.74S
ST JAMES       CLEAR     63  57  82 CALM      29.74S
FAIRMONT       MOCLDY    70  61  73 E8        29.73R
GLENCOE        CLOUDY    64  62  94 CALM      29.75R
FARIBAULT      CLEAR     64  63  94 CALM      29.75S
OWATONNA       CLEAR     64  61  88 CALM      29.74F
WASECA         PTCLDY    63  59  88 CALM      29.75F
ALBERT LEA     CLEAR     66  63  88 E3        29.74S
$$
MNZ078>079-086>088-094>096-280300-
   Southeast Minnesota

CITY           SKY/WX    TMP DP  RH WIND       PRES   REMARKS
ROCHESTER      PTCLDY    64  62  93 N6        29.75S
RED WING       PTCLDY    66  63  88 CALM      29.73R
STANTON        CLEAR     65  61  86 CALM      29.73S
DODGE CENTER   PTCLDY    64  61  88 NE3       29.74F
WINONA         CLOUDY    70  66  88 CALM      29.73S
AUSTIN         CLEAR     64  61  88 CALM      29.74F
PRESTON        CLOUDY    66  62  86 CALM      29.76R
$$
ABBREVIATIONS USED IN REMARKS
   TC - TEMPERATURES IN CELSIUS
  WCI - WIND CHILL INDEX
   HX - HEAT INDEX
  VSB - VISIBILITY
$$




USA.gov is the U.S. government's official web portal to all federal, state and local government web resources and services.